Location: Avellino
(40.9000°N, 14.7830°E)
Time: 08:58:48
(UTC+02:00)

ISS - Visible Passes

Search period start: 08 May 2021 00:00
Search period end: 18 May 2021 00:00
Orbit: 418 x 421 km, 51.6° (Epoch: 08 May)

Date Brightness Start Highest point End Pass type
(mag) Time Alt. Az. Time Alt. Az. Time Alt. Az.
08 May -1.1 02:49:24 17° NNW 02:49:28 17° NNW 02:51:49 10° NNE visible
08 May -0.8 04:25:28 10° NNW 04:27:19 14° N 04:29:09 10° NE visible
09 May -0.7 02:03:26 16° NNE 02:03:26 16° NNE 02:04:31 10° NNE visible
09 May -0.7 03:37:52 10° NNW 03:39:37 13° N 03:41:21 10° NNE visible
09 May -1.2 05:14:37 10° NNW 05:17:22 22° NNE 05:20:06 10° ENE visible
10 May -0.7 02:50:22 11° NNW 02:51:55 14° N 02:53:44 10° NNE visible
10 May -0.9 04:27:20 10° NNW 04:29:45 18° NNE 04:32:10 10° ENE visible
11 May -0.7 02:04:21 15° N 02:04:21 15° N 02:06:16 10° NNE visible
11 May -0.7 03:40:00 10° NNW 03:42:05 15° N 03:44:11 10° NE visible
11 May -2.4 05:16:19 10° NW 05:19:33 43° NNE 05:22:48 10° ESE visible
12 May -0.4 01:18:17 13° NNE 01:18:17 13° NNE 01:18:54 10° NNE visible
12 May -0.6 02:52:33 10° NNW 02:54:24 14° N 02:56:15 10° NE visible
12 May -1.7 04:29:00 10° NW 04:32:02 30° NNE 04:35:04 10° E visible
13 May -0.5 02:05:02 10° NNW 02:06:42 13° N 02:08:26 10° NNE visible
13 May -1.2 03:41:43 10° NNW 03:44:27 22° NNE 03:47:12 10° ENE visible
14 May -0.5 01:18:39 13° NNW 01:18:59 14° N 01:20:47 10° NNE visible
14 May -0.8 02:54:24 10° NNW 02:56:49 18° NNE 02:59:14 10° ENE visible
14 May -3.5 04:30:44 10° NW 04:34:06 71° NE 04:37:28 10° ESE visible
14 May -2.7 21:14:17 10° SSW 21:17:06 25° SE 21:19:56 10° ENE visible
14 May -2.4 22:50:35 10° W 22:53:47 39° NNW 22:55:40 20° NNE visible
15 May -0.6 00:29:16 10° NW 00:31:18 15° N 00:33:19 10° NNE visible
15 May -0.6 02:07:03 10° NNW 02:09:09 15° N 02:11:15 10° NE visible
15 May -2.5 03:43:22 10° NW 03:46:37 44° NNE 03:49:52 10° ESE visible
15 May -3.3 22:02:57 10° WSW 22:06:17 62° NW 22:09:38 10° NE visible
15 May -0.8 23:41:17 10° WNW 23:43:37 17° NNW 23:45:57 10° NNE visible
16 May -0.5 01:19:37 10° NNW 01:21:28 14° N 01:23:18 10° NE visible
16 May -1.8 02:56:03 10° NW 02:59:06 30° NNE 03:02:07 10° E visible
16 May -3.3 04:32:47 10° WNW 04:35:57 38° SW 04:39:06 10° SSE visible
16 May -3.9 21:15:30 10° SW 21:18:51 78° SE 21:22:13 10° NE visible
16 May -1.1 22:53:19 10° WNW 22:55:59 21° NNW 22:58:38 10° NNE visible
17 May -0.4 00:32:02 10° NNW 00:33:45 13° N 00:35:29 10° NNE visible
17 May -1.2 02:08:45 10° NNW 02:11:31 22° NNE 02:14:15 10° ENE visible
17 May -3.9 03:45:13 10° WNW 03:48:35 67° SW 03:51:55 10° SE visible
17 May -1.5 22:05:26 10° W 22:08:23 27° NNW 22:11:21 10° NE visible
17 May -0.4 23:44:15 10° NW 23:46:03 14° N 23:47:50 10° NNE visible
